| time (UTC) | temp F | wind direction | speed knots | gust knots | rain 1hr in | rain 24hr in | rain mn in | humidity % | barometer mb |
| 20260504081708 | 60 | 181 | 3.5 | 5.2 | 0.00 | 0.00 | 0.00 | 63 | 1009.2 |
| 20260504081204 | 61 | 202 | 6.1 | 8.7 | 0.00 | 0.00 | 0.00 | 62 | 1009.3 |
| 20260504080700 | 60 | 216 | 2.6 | 2.6 | 0.00 | 0.00 | 0.00 | 62 | 1009.3 |
| 20260504080157 | 60 | 188 | 4.3 | 5.2 | 0.00 | 0.00 | 0.00 | 62 | 1009.4 |
| 20260504070125 | 61 | 196 | 2.6 | 4.3 | 0.00 | 0.00 | 0.00 | 61 | 1009.6 |
| 20260504050514 | 61 | 205 | 4.3 | 5.2 | 0.00 | 0.00 | 0.00 | 59 | 1010.3 |
| 20260504050010 | 61 | 169 | 4.3 | 7.0 | 0.00 | 0.00 | 0.00 | 59 | 1010.3 |
| 20260504045507 | 61 | 222 | 4.3 | 7.0 | 0.00 | 0.00 | 0.00 | 59 | 1010.3 |
| 20260504045002 | 61 | 190 | 5.2 | 7.0 | 0.00 | 0.00 | 0.00 | 59 | 1010.2 |
| 20260504044500 | 61 | 205 | 2.6 | 2.6 | 0.00 | 0.00 | 0.00 | 58 | 1010.5 |
| 20260504043957 | 62 | 215 | 3.5 | 4.3 | 0.00 | 0.00 | 0.00 | 58 | 1010.5 |
| 20260504043454 | 62 | 187 | 4.3 | 6.1 | 0.00 | 0.00 | 0.00 | 58 | 1010.6 |
| 20260504042952 | 62 | 232 | 4.3 | 6.1 | 0.00 | 0.00 | 0.00 | 57 | 1010.6 |
| 20260504042448 | 62 | 228 | 4.3 | 6.1 | 0.00 | 0.00 | 0.00 | 57 | 1010.5 |
| 20260504041945 | 62 | 154 | 0.9 | 0.9 | 0.00 | 0.00 | 0.00 | 57 | 1010.6 |
| 20260504041441 | 62 | 46 | 1.7 | 5.2 | 0.00 | 0.00 | 0.00 | 57 | 1010.9 |
| 20260504040937 | 62 | 199 | 1.7 | 1.7 | 0.00 | 0.00 | 0.00 | 57 | 1011.1 |
| 20260504040435 | 62 | 213 | 3.5 | 4.3 | 0.00 | 0.00 | 0.00 | 56 | 1011.1 |
| 20260504035931 | 62 | 210 | 3.5 | 5.2 | 0.00 | 0.00 | 0.00 | 56 | 1011.1 |
| 20260504035428 | 62 | 214 | 0.9 | 0.9 | 0.00 | 0.00 | 0.00 | 56 | 1011.3 |
| 20260504034925 | 62 | 202 | 2.6 | 2.6 | 0.00 | 0.00 | 0.00 | 55 | 1011.3 |
| 20260504034423 | 62 | 203 | 3.5 | 5.2 | 0.00 | 0.00 | 0.00 | 55 | 1011.2 |
| 20260504033919 | 62 | 227 | 2.6 | 4.3 | 0.00 | 0.00 | 0.00 | 56 | 1011.3 |
| 20260504033417 | 62 | 123 | 4.3 | 6.1 | 0.00 | 0.00 | 0.00 | 55 | 1011.2 |
| 20260504032914 | 62 | 161 | 2.6 | 4.3 | 0.00 | 0.00 | 0.00 | 55 | 1011.0 |
| 20260504032411 | 62 | 174 | 1.7 | 1.7 | 0.00 | 0.00 | 0.00 | 55 | 1011.3 |
| 20260504031902 | 62 | 159 | 2.6 | 5.2 | 0.00 | 0.00 | 0.00 | 55 | 1011.4 |
| 20260504031359 | 62 | 212 | 3.5 | 4.3 | 0.00 | 0.00 | 0.00 | 55 | 1011.4 |
| 20260504030855 | 62 | 76 | 0.0 | 0.9 | 0.00 | 0.00 | 0.00 | 55 | 1011.7 |
| 20260504030353 | 62 | 90 | 0.0 | 0.0 | 0.00 | 0.00 | 0.00 | 55 | 1011.7 |
| 20260504025849 | 62 | 70 | 0.0 | 0.9 | 0.00 | 0.00 | 0.00 | 55 | 1011.7 |
| 20260504025346 | 62 | 93 | 0.9 | 0.9 | 0.00 | 0.00 | 0.00 | 55 | 1011.7 |
| 20260504024843 | 62 | 92 | 0.0 | 0.0 | 0.00 | 0.00 | 0.00 | 55 | 1011.6 |
| 20260504024339 | 62 | 91 | 0.0 | 0.9 | 0.00 | 0.00 | 0.00 | 55 | 1011.8 |
| 20260504023836 | 63 | 271 | 0.0 | 0.9 | 0.00 | 0.00 | 0.00 | 54 | 1011.7 |
| 20260504023333 | 63 | 203 | 2.6 | 4.3 | 0.00 | 0.00 | 0.00 | 54 | 1011.6 |
| 20260504022829 | 63 | 75 | 0.9 | 1.7 | 0.00 | 0.00 | 0.00 | 54 | 1011.9 |
| 20260504022326 | 63 | 122 | 0.0 | 0.9 | 0.00 | 0.00 | 0.00 | 54 | 1011.9 |
| 20260504021822 | 63 | 18 | 0.0 | 0.9 | 0.00 | 0.00 | 0.00 | 54 | 1011.8 |
| 20260504021320 | 63 | 119 | 0.9 | 1.7 | 0.00 | 0.00 | 0.00 | 54 | 1011.9 |
| 20260504020817 | 63 | 183 | 1.7 | 1.7 | 0.00 | 0.00 | 0.00 | 53 | 1011.7 |
| 20260504020313 | 63 | 208 | 2.6 | 4.3 | 0.00 | 0.00 | 0.00 | 53 | 1011.8 |
| 20260504015809 | 63 | 202 | 2.6 | 4.3 | 0.00 | 0.00 | 0.00 | 53 | 1011.8 |
| 20260504015306 | 63 | 116 | 0.9 | 1.7 | 0.00 | 0.00 | 0.00 | 54 | 1011.9 |
| 20260504014802 | 63 | 187 | 0.0 | 0.9 | 0.00 | 0.00 | 0.00 | 54 | 1011.8 |
| 20260504014258 | 64 | 57 | 0.0 | 0.0 | 0.00 | 0.00 | 0.00 | 53 | 1011.9 |
| 20260504013756 | 64 | 163 | 0.9 | 1.7 | 0.00 | 0.00 | 0.00 | 52 | 1011.9 |
| 20260504013253 | 64 | 50 | 0.0 | 0.0 | 0.00 | 0.00 | 0.00 | 52 | 1011.8 |
| 20260504012749 | 64 | 259 | 0.9 | 0.9 | 0.00 | 0.00 | 0.00 | 51 | 1011.8 |
| 20260504012248 | 65 | 182 | 2.6 | 2.6 | 0.00 | 0.00 | 0.00 | 51 | 1012.0 |
| 20260504011744 | 65 | 192 | 1.7 | 2.6 | 0.00 | 0.00 | 0.00 | 51 | 1011.9 |
| 20260504011241 | 65 | 146 | 2.6 | 2.6 | 0.00 | 0.00 | 0.00 | 50 | 1011.8 |
| 20260504010737 | 65 | 167 | 1.7 | 1.7 | 0.00 | 0.00 | 0.00 | 50 | 1011.8 |
| 20260504010233 | 65 | 136 | 2.6 | 4.3 | 0.00 | 0.00 | 0.00 | 49 | 1012.0 |
| 20260504005730 | 65 | 157 | 2.6 | 2.6 | 0.00 | 0.00 | 0.00 | 49 | 1011.8 |
| 20260504005227 | 65 | 200 | 4.3 | 5.2 | 0.00 | 0.00 | 0.00 | 49 | 1012.0 |
| 20260504004724 | 66 | 247 | 2.6 | 2.6 | 0.00 | 0.00 | 0.00 | 49 | 1011.5 |
| 20260504004221 | 66 | 148 | 4.3 | 6.1 | 0.00 | 0.00 | 0.00 | 49 | 1011.9 |
| 20260504003718 | 66 | 232 | 5.2 | 6.1 | 0.00 | 0.00 | 0.00 | 49 | 1011.5 |
| 20260504003215 | 66 | 199 | 6.1 | 6.1 | 0.00 | 0.00 | 0.00 | 48 | 1011.6 |
| 20260504002712 | 66 | 211 | 3.5 | 4.3 | 0.00 | 0.00 | 0.00 | 48 | 1011.6 |
| 20260504002209 | 66 | 193 | 5.2 | 6.1 | 0.00 | 0.00 | 0.00 | 48 | 1011.6 |
| 20260504001707 | 66 | 219 | 7.8 | 11.3 | 0.00 | 0.00 | 0.00 | 48 | 1011.3 |
| 20260504001203 | 66 | 226 | 7.0 | 8.7 | 0.00 | 0.00 | 0.00 | 48 | 1011.4 |
| 20260504000700 | 67 | 172 | 4.3 | 5.2 | 0.00 | 0.00 | 0.00 | 47 | 1011.4 |
| 20260504000157 | 67 | 201 | 8.7 | 9.6 | 0.00 | 0.00 | 0.00 | 47 | 1011.4 |
| 20260503235655 | 67 | 238 | 4.3 | 6.1 | 0.00 | 0.00 | 0.00 | 46 | 1011.2 |
| 20260503235151 | 67 | 224 | 6.1 | 8.7 | 0.00 | 0.00 | 0.00 | 45 | 1011.2 |
| 20260503234650 | 67 | 182 | 9.6 | 11.3 | 0.00 | 0.00 | 0.00 | 45 | 1011.2 |
| 20260503234148 | 68 | 223 | 4.3 | 7.0 | 0.00 | 0.00 | 0.00 | 46 | 1011.1 |
| 20260503233644 | 67 | 179 | 6.1 | 7.8 | 0.00 | 0.00 | 0.00 | 46 | 1011.4 |
| 20260503233140 | 68 | 221 | 9.6 | 12.2 | 0.00 | 0.00 | 0.00 | 45 | 1011.1 |
| 20260503232637 | 68 | 183 | 6.1 | 8.7 | 0.00 | 0.00 | 0.00 | 45 | 1011.2 |
| 20260503232134 | 68 | 213 | 7.8 | 9.6 | 0.00 | 0.00 | 0.00 | 45 | 1011.4 |
| 20260503231632 | 68 | 201 | 8.7 | 13.0 | 0.00 | 0.00 | 0.00 | 45 | 1011.5 |
| 20260503231128 | 68 | 245 | 7.0 | 8.7 | 0.00 | 0.00 | 0.00 | 44 | 1011.6 |
| 20260503230625 | 68 | 189 | 8.7 | 12.2 | 0.00 | 0.00 | 0.00 | 44 | 1011.8 |
| 20260503230122 | 68 | 197 | 7.0 | 7.8 | 0.00 | 0.00 | 0.00 | 44 | 1011.7 |
| 20260503225620 | 68 | 180 | 4.3 | 6.1 | 0.00 | 0.00 | 0.00 | 45 | 1011.6 |
| 20260503225119 | 68 | 203 | 4.3 | 6.1 | 0.00 | 0.00 | 0.00 | 45 | 1011.7 |
| 20260503224617 | 68 | 206 | 8.7 | 11.3 | 0.00 | 0.00 | 0.00 | 44 | 1011.8 |
| 20260503224115 | 68 | 254 | 4.3 | 6.1 | 0.00 | 0.00 | 0.00 | 44 | 1011.9 |
| 20260503223613 | 68 | 216 | 9.6 | 11.3 | 0.00 | 0.00 | 0.00 | 44 | 1012.0 |
| 20260503223108 | 68 | 222 | 5.2 | 6.1 | 0.00 | 0.00 | 0.00 | 45 | 1012.1 |
| 20260503222606 | 68 | 232 | 8.7 | 11.3 | 0.00 | 0.00 | 0.00 | 44 | 1012.3 |
| 20260503222104 | 68 | 175 | 7.8 | 9.6 | 0.00 | 0.00 | 0.00 | 44 | 1012.2 |
| 20260503221602 | 68 | 216 | 10.4 | 13.0 | 0.00 | 0.00 | 0.00 | 44 | 1012.3 |
| 20260503221059 | 68 | 242 | 8.7 | 14.8 | 0.00 | 0.00 | 0.00 | 44 | 1012.6 |
| 20260503220555 | 67 | 187 | 7.8 | 9.6 | 0.00 | 0.00 | 0.00 | 43 | 1012.5 |
| 20260503220052 | 68 | 222 | 10.4 | 13.0 | 0.00 | 0.00 | 0.00 | 43 | 1012.5 |
| 20260503215549 | 68 | 210 | 9.6 | 12.2 | 0.00 | 0.00 | 0.00 | 44 | 1012.7 |
| 20260503215046 | 68 | 200 | 4.3 | 6.1 | 0.00 | 0.00 | 0.00 | 45 | 1012.4 |
| 20260503214544 | 68 | 184 | 8.7 | 9.6 | 0.00 | 0.00 | 0.00 | 45 | 1013.0 |
| 20260503214041 | 67 | 174 | 9.6 | 11.3 | 0.00 | 0.00 | 0.00 | 44 | 1012.8 |
| 20260503213539 | 67 | 192 | 6.1 | 7.8 | 0.00 | 0.00 | 0.00 | 44 | 1013.1 |
| 20260503213035 | 67 | 206 | 5.2 | 7.0 | 0.00 | 0.00 | 0.00 | 44 | 1013.4 |
| 20260503212533 | 67 | 286 | 6.1 | 13.0 | 0.00 | 0.00 | 0.00 | 44 | 1013.2 |
| 20260503212030 | 68 | 236 | 12.2 | 14.8 | 0.00 | 0.00 | 0.00 | 43 | 1013.5 |
| 20260503211527 | 68 | 193 | 6.1 | 7.8 | 0.00 | 0.00 | 0.00 | 44 | 1013.4 |
| 20260503211023 | 68 | 213 | 8.7 | 13.0 | 0.00 | 0.00 | 0.00 | 44 | 1013.4 |
| 20260503210520 | 67 | 195 | 7.0 | 9.6 | 0.00 | 0.00 | 0.00 | 44 | 1013.6 |
| 20260503210015 | 67 | 236 | 7.0 | 8.7 | 0.00 | 0.00 | 0.00 | 44 | 1014.0 |
| 20260503205512 | 67 | 212 | 4.3 | 7.0 | 0.00 | 0.00 | 0.00 | 45 | 1013.9 |
| 20260503205008 | 67 | 224 | 5.2 | 7.0 | 0.00 | 0.00 | 0.00 | 45 | 1014.1 |
| 20260503204506 | 66 | 222 | 8.7 | 12.2 | 0.00 | 0.00 | 0.00 | 44 | 1014.1 |
| 20260503204003 | 66 | 211 | 12.2 | 14.8 | 0.00 | 0.00 | 0.00 | 45 | 1014.3 |
| 20260503203500 | 66 | 251 | 7.0 | 7.8 | 0.00 | 0.00 | 0.00 | 45 | 1014.3 |
| 20260503202956 | 67 | 214 | 8.7 | 12.2 | 0.00 | 0.00 | 0.00 | 44 | 1014.4 |
| 20260503202455 | 67 | 231 | 7.8 | 8.7 | 0.00 | 0.00 | 0.00 | 44 | 1014.9 |
| 20260503201953 | 67 | 213 | 8.7 | 11.3 | 0.00 | 0.00 | 0.00 | 44 | 1014.9 |
| 20260503201450 | 66 | 198 | 6.1 | 8.7 | 0.00 | 0.00 | 0.00 | 45 | 1015.0 |
| 20260503200947 | 65 | 220 | 7.0 | 7.8 | 0.00 | 0.00 | 0.00 | 46 | 1015.3 |
| 20260503200444 | 66 | 218 | 9.6 | 12.2 | 0.00 | 0.00 | 0.00 | 45 | 1015.4 |
| 20260503195940 | 66 | 234 | 6.1 | 11.3 | 0.00 | 0.00 | 0.00 | 46 | 1015.3 |
| 20260503195438 | 66 | 204 | 9.6 | 13.0 | 0.00 | 0.00 | 0.00 | 46 | 1015.6 |
| 20260503194934 | 66 | 197 | 5.2 | 6.1 | 0.00 | 0.00 | 0.00 | 47 | 1015.6 |
| 20260503194431 | 66 | 275 | 9.6 | 13.0 | 0.00 | 0.00 | 0.00 | 46 | 1015.8 |
| 20260503193926 | 65 | 232 | 10.4 | 14.8 | 0.00 | 0.00 | 0.00 | 47 | 1015.9 |
| 20260503193422 | 66 | 279 | 4.3 | 6.1 | 0.00 | 0.00 | 0.00 | 46 | 1016.0 |
| 20260503192918 | 65 | 225 | 8.7 | 9.6 | 0.00 | 0.00 | 0.00 | 47 | 1016.1 |
| 20260503192414 | 66 | 186 | 5.2 | 6.1 | 0.00 | 0.00 | 0.00 | 47 | 1016.0 |
| 20260503191910 | 65 | 224 | 4.3 | 6.1 | 0.00 | 0.00 | 0.00 | 47 | 1016.4 |
| 20260503191408 | 65 | 232 | 5.2 | 6.1 | 0.00 | 0.00 | 0.00 | 48 | 1016.2 |
| 20260503190904 | 65 | 211 | 7.0 | 9.6 | 0.00 | 0.00 | 0.00 | 46 | 1016.3 |
| 20260503190402 | 64 | 233 | 9.6 | 12.2 | 0.00 | 0.00 | 0.00 | 48 | 1016.4 |
| 20260503185858 | 64 | 210 | 7.0 | 8.7 | 0.00 | 0.00 | 0.00 | 49 | 1016.5 |
| 20260503185354 | 64 | 250 | 11.3 | 14.8 | 0.00 | 0.00 | 0.00 | 47 | 1016.5 |
| 20260503184854 | 64 | 231 | 7.8 | 13.9 | 0.00 | 0.00 | 0.00 | 49 | 1016.8 |
| 20260503184351 | 64 | 236 | 10.4 | 13.9 | 0.00 | 0.00 | 0.00 | 49 | 1017.1 |
| 20260503183846 | 64 | 202 | 9.6 | 11.3 | 0.00 | 0.00 | 0.00 | 50 | 1017.1 |
| 20260503183344 | 64 | 230 | 4.3 | 7.0 | 0.00 | 0.00 | 0.00 | 50 | 1017.4 |
| 20260503182841 | 64 | 224 | 10.4 | 13.0 | 0.00 | 0.00 | 0.00 | 51 | 1017.5 |
| 20260503182340 | 63 | 213 | 9.6 | 13.0 | 0.00 | 0.00 | 0.00 | 50 | 1017.6 |
| 20260503181837 | 64 | 227 | 7.0 | 8.7 | 0.00 | 0.00 | 0.00 | 50 | 1017.5 |
| 20260503181334 | 63 | 233 | 2.6 | 4.3 | 0.00 | 0.00 | 0.00 | 49 | 1017.7 |
| 20260503180830 | 64 | 215 | 7.8 | 8.7 | 0.00 | 0.00 | 0.00 | 51 | 1017.6 |
| 20260503180328 | 63 | 254 | 6.1 | 7.0 | 0.00 | 0.00 | 0.00 | 51 | 1017.5 |
| 20260503175824 | 62 | 190 | 7.0 | 9.6 | 0.00 | 0.00 | 0.00 | 52 | 1018.0 |
| 20260503175323 | 63 | 192 | 7.0 | 7.8 | 0.00 | 0.00 | 0.00 | 50 | 1018.0 |
| 20260503174818 | 63 | 200 | 7.8 | 8.7 | 0.00 | 0.00 | 0.00 | 50 | 1017.8 |
| 20260503174316 | 63 | 246 | 4.3 | 6.1 | 0.00 | 0.00 | 0.00 | 51 | 1018.2 |
| 20260503173811 | 62 | 188 | 5.2 | 7.0 | 0.00 | 0.00 | 0.00 | 51 | 1018.6 |
| 20260503173308 | 61 | 172 | 2.6 | 2.6 | 0.00 | 0.00 | 0.00 | 52 | 1018.3 |
| 20260503172805 | 62 | 195 | 8.7 | 9.6 | 0.00 | 0.00 | 0.00 | 50 | 1018.7 |
| 20260503172305 | 61 | 248 | 7.8 | 11.3 | 0.00 | 0.00 | 0.00 | 51 | 1018.6 |
| 20260503171758 | 62 | 265 | 9.6 | 13.0 | 0.00 | 0.00 | 0.00 | 51 | 1018.7 |
| 20260503171255 | 61 | 112 | 3.5 | 5.2 | 0.00 | 0.00 | 0.00 | 54 | 1019.0 |
| 20260503170752 | 62 | 246 | 4.3 | 5.2 | 0.00 | 0.00 | 0.00 | 52 | 1018.8 |
| 20260503170249 | 61 | 223 | 5.2 | 7.0 | 0.00 | 0.00 | 0.00 | 52 | 1018.7 |
| 20260503160211 | 60 | 125 | 6.1 | 8.7 | 0.00 | 0.00 | 0.00 | 51 | 1019.5 |
| 20260503150641 | 58 | 224 | 7.8 | 8.7 | 0.00 | 0.00 | 0.00 | 58 | 1020.0 |
| 20260503150137 | 58 | 164 | 4.3 | 5.2 | 0.00 | 0.00 | 0.00 | 57 | 1019.8 |
| 20260503131031 | 52 | 241 | 2.6 | 4.3 | 0.00 | 0.00 | 0.00 | 74 | 1019.8 |
| 20260503130528 | 51 | 183 | 1.7 | 2.6 | 0.00 | 0.00 | 0.00 | 75 | 1019.9 |
| 20260503110419 | 40 | 39 | 0.0 | 0.0 | 0.00 | 0.00 | 0.00 | 92 | 1019.1 |